Retour au catalogue

THORAD AGENA D DEB

ActifPO
NORAD 42527·DEBRIS·🇺🇸 United States

Lancé Apr 8, 1970 depuis Vandenberg Space Force Base

Loading…

Prochains Passages (prochaines 24 heures)

TLE

VieillissantSource: Space-Track

Époque: Sep 7, 2026, 16:47 UTC

1 42527U 70025SH  26250.69985692  .00004792  00000-0  14083-2 0  9993
2 42527  99.1345 214.9323 0024956  70.3820 290.0059 14.44066782663319

Suivez THORAD AGENA D DEB en temps réel avec AllMySat

Download on the App Store